{"data":{"norad_id":49441,"epoch":"2026-09-19T23:40:28.627680Z","epoch_age_seconds":85706,"freshness":"FRESH","line1":"1 49441U 21104AK  26262.98644245  .00000768  00000+0  33879-4 0  9994","line2":"2 49441  53.1606  40.4700 0001108  75.6936 284.4190 15.34387893268472","mean_motion":15.34387893,"eccentricity":0.0001108,"inclination_deg":53.1606,"raan_deg":40.47,"arg_perigee_deg":75.6936,"mean_anomaly_deg":284.419,"bstar":3.3879e-5,"rev_number":26847,"period_min":93.848498581708,"perigee_km":461.98125591342,"apogee_km":463.49719408488,"semimajor_km":6840.8762249992,"source":"CELESTRAK","updated_at":"2026-09-20T09:00:39.261287Z"}}